When you browse on this site, cookies collect data to enhance your experience and personalize the content and advertising you see.
Visit our Privacy Policy to learn more. By continuing to use the site, you agree to this use of cookies and data.
  • In Hungary
  • List of Countries
  • For 7 days
  • Water Temperature
  • Satellite Maps
  • Weather Map
  • News
  • Weather Widgets
  • user-avatar
    Login

    Hourly Weather Marsa Alam

    Today, 16 November, Friday

    Time Temperature Precipitation Wind Pressure Humidity
    00:00 +18°C° 0 mm 1 mps 716 mmHg 51%
    01:00 +18°C° 0 mm 1 mps 716 mmHg 53%
    02:00 +16°C° 0 mm 1 mps 716 mmHg 54%
    03:00 +16°C° 0 mm 1 mps 716 mmHg 56%
    04:00 +16°C° 0 mm 1 mps 716 mmHg 57%
    05:00 +16°C° 0 mm 1 mps 717 mmHg 59%
    06:00 +18°C° 0 mm 1 mps 717 mmHg 55%
    07:00 +19°C° 0 mm 1 mps 718 mmHg 52%
    08:00 +21°C° 0 mm 1 mps 718 mmHg 47%
    09:00 +21°C° 0 mm 2 mps 718 mmHg 45%
    10:00 +23°C° 0 mm 2 mps 719 mmHg 42%
    11:00 +24°C° 0 mm 2 mps 719 mmHg 40%
    12:00 +25°C° 0 mm 3 mps 719 mmHg 39%
    13:00 +25°C° 0 mm 3 mps 718 mmHg 38%
    14:00 +26°C° 0 mm 3 mps 718 mmHg 36%
    15:00 +25°C° 0 mm 3 mps 718 mmHg 41%
    16:00 +23°C° 0 mm 4 mps 718 mmHg 46%
    17:00 +23°C° 0 mm 4 mps 718 mmHg 52%
    18:00 +22°C° 0 mm 3 mps 718 mmHg 57%
    19:00 +21°C° 0 mm 3 mps 718 mmHg 62%
    20:00 +21°C° 0 mm 3 mps 718 mmHg 67%
    21:00 +20°C° 0 mm 3 mps 718 mmHg 68%
    22:00 +20°C° 0 mm 3 mps 718 mmHg 70%
    23:00 +20°C° 0 mm 3 mps 718 mmHg 71%

    Tomorrow, 17 November, Saturday

    Time Temperature Precipitation Wind Pressure Humidity
    00:00 +19°C° 0 mm 3 mps 718 mmHg 72%
    01:00 +19°C° 0 mm 3 mps 718 mmHg 73%
    02:00 +19°C° 0 mm 3 mps 718 mmHg 74%
    03:00 +18°C° 0 mm 3 mps 718 mmHg 76%
    04:00 +18°C° 0 mm 3 mps 718 mmHg 77%
    05:00 +17°C° 0 mm 3 mps 718 mmHg 79%
    06:00 +18°C° 0 mm 4 mps 718 mmHg 73%
    07:00 +19°C° 0 mm 4 mps 718 mmHg 66%
    08:00 +20°C° 0 mm 4 mps 719 mmHg 60%
    09:00 +22°C° 0 mm 5 mps 719 mmHg 53%
    10:00 +23°C° 0 mm 5 mps 719 mmHg 47%
    11:00 +25°C° 0 mm 5 mps 719 mmHg 40%
    12:00 +26°C° 0 mm 5 mps 719 mmHg 39%
    13:00 +26°C° 0 mm 5 mps 718 mmHg 38%
    14:00 +27°C° 0 mm 5 mps 718 mmHg 37%
    15:00 +26°C° 0 mm 5 mps 717 mmHg 42%
    16:00 +23°C° 0 mm 5 mps 717 mmHg 47%
    17:00 +22°C° 0 mm 5 mps 717 mmHg 52%
    18:00 +22°C° 0 mm 4 mps 717 mmHg 56%
    19:00 +21°C° 0 mm 4 mps 717 mmHg 61%
    20:00 +20°C° 0 mm 3 mps 717 mmHg 65%
    21:00 +19°C° 0 mm 3 mps 717 mmHg 64%
    22:00 +19°C° 0 mm 3 mps 717 mmHg 64%
    23:00 +19°C° 0 mm 3 mps 717 mmHg 63%

    Day after tomorrow, 18 November, Sunday

    Time Temperature Precipitation Wind Pressure Humidity
    00:00 +18°C° 0 mm 3 mps 717 mmHg 60%
    01:00 +18°C° 0 mm 3 mps 716 mmHg 58%
    02:00 +18°C° 0 mm 3 mps 716 mmHg 55%
    03:00 +18°C° 0 mm 3 mps 716 mmHg 54%
    04:00 +17°C° 0 mm 3 mps 716 mmHg 54%
    05:00 +17°C° 0 mm 2 mps 716 mmHg 53%
    06:00 +18°C° 0 mm 3 mps 716 mmHg 48%
    07:00 +20°C° 0 mm 3 mps 716 mmHg 44%
    08:00 +21°C° 0 mm 3 mps 717 mmHg 39%
    09:00 +24°C° 0 mm 3 mps 717 mmHg 36%
    10:00 +26°C° 0 mm 3 mps 717 mmHg 32%
    11:00 +27°C° 0 mm 3 mps 717 mmHg 28%
    12:00 +28°C° 0 mm 4 mps 717 mmHg 28%
    13:00 +28°C° 0 mm 4 mps 716 mmHg 28%
    14:00 +28°C° 0 mm 4 mps 715 mmHg 27%
    15:00 +27°C° 0 mm 4 mps 715 mmHg 31%
    16:00 +27°C° 0 mm 3 mps 715 mmHg 35%
    17:00 +26°C° 0 mm 3 mps 715 mmHg 39%
    18:00 +25°C° 0 mm 3 mps 715 mmHg 43%
    19:00 +24°C° 0 mm 2 mps 715 mmHg 47%
    20:00 +23°C° 0 mm 2 mps 716 mmHg 52%
    21:00 +21°C° 0 mm 2 mps 715 mmHg 52%
    22:00 +22°C° 0 mm 1 mps 715 mmHg 53%
    23:00 +21°C° 0 mm 1 mps 715 mmHg 54%

    19 November, Monday

    Time Temperature Precipitation Wind Pressure Humidity
    00:00 +21°C° 0 mm 1 mps 715 mmHg 54%
    01:00 +20°C° 0 mm 1 mps 715 mmHg 54%
    02:00 +20°C° 0 mm 1 mps 714 mmHg 53%
    03:00 +19°C° 0 mm 1 mps 714 mmHg 53%
    04:00 +19°C° 0 mm 1 mps 714 mmHg 52%
    05:00 +19°C° 0 mm 1 mps 714 mmHg 52%
    06:00 +20°C° 0 mm 1 mps 715 mmHg 46%
    07:00 +22°C° 0 mm 1 mps 716 mmHg 40%
    08:00 +24°C° 0 mm 1 mps 716 mmHg 34%
    09:00 +25°C° 0 mm 1 mps 717 mmHg 30%
    10:00 +26°C° 0 mm 1 mps 717 mmHg 26%
    11:00 +28°C° 0 mm 1 mps 717 mmHg 23%
    12:00 +28°C° 0 mm 2 mps 716 mmHg 21%
    13:00 +29°C° 0 mm 3 mps 716 mmHg 20%
    14:00 +29°C° 0 mm 3 mps 716 mmHg 19%
    15:00 +28°C° 0 mm 3 mps 716 mmHg 24%
    16:00 +27°C° 0 mm 3 mps 715 mmHg 28%
    17:00 +26°C° 0 mm 3 mps 715 mmHg 33%
    18:00 +25°C° 0 mm 3 mps 716 mmHg 38%
    19:00 +24°C° 0 mm 3 mps 716 mmHg 44%
    20:00 +23°C° 0 mm 2 mps 717 mmHg 50%
    21:00 +21°C° 0 mm 2 mps 717 mmHg 53%
    22:00 +21°C° 0 mm 2 mps 717 mmHg 57%
    23:00 +20°C° 0 mm 2 mps 717 mmHg 60%

    20 November, Tuesday

    Time Temperature Precipitation Wind Pressure Humidity
    00:00 +20°C° 0 mm 2 mps 717 mmHg 60%
    01:00 +19°C° 0 mm 2 mps 716 mmHg 60%
    02:00 +19°C° 0 mm 2 mps 716 mmHg 59%
    03:00 +18°C° 0 mm 2 mps 716 mmHg 57%
    04:00 +18°C° 0 mm 2 mps 716 mmHg 54%
    05:00 +17°C° 0 mm 2 mps 716 mmHg 51%
    06:00 +19°C° 0 mm 3 mps 717 mmHg 45%
    07:00 +20°C° 0 mm 3 mps 718 mmHg 39%
    08:00 +22°C° 0 mm 3 mps 718 mmHg 32%
    09:00 +23°C° 0 mm 4 mps 718 mmHg 28%
    10:00 +26°C° 0 mm 4 mps 718 mmHg 25%
    11:00 +28°C° 0 mm 5 mps 718 mmHg 21%
    12:00 +28°C° 0 mm 5 mps 718 mmHg 21%
    13:00 +28°C° 0 mm 5 mps 717 mmHg 22%
    14:00 +29°C° 0 mm 6 mps 717 mmHg 22%
    15:00 +28°C° 0 mm 5 mps 717 mmHg 27%
    16:00 +26°C° 0 mm 5 mps 717 mmHg 32%
    17:00 +25°C° 0 mm 4 mps 717 mmHg 37%
    18:00 +23°C° 0 mm 4 mps 717 mmHg 41%
    19:00 +22°C° 0 mm 4 mps 717 mmHg 46%
    20:00 +21°C° 0 mm 3 mps 718 mmHg 50%
    21:00 +21°C° 0 mm 3 mps 718 mmHg 49%
    22:00 +21°C° 0 mm 3 mps 718 mmHg 48%
    23:00 +20°C° 0 mm 3 mps 717 mmHg 48%

    21 November, Wednesday

    Time Temperature Precipitation Wind Pressure Humidity
    00:00 +20°C° 0 mm 3 mps 717 mmHg 46%
    01:00 +20°C° 0 mm 3 mps 717 mmHg 45%
    02:00 +20°C° 0 mm 3 mps 717 mmHg 44%
    03:00 +20°C° 0 mm 3 mps 717 mmHg 44%
    04:00 +19°C° 0 mm 3 mps 716 mmHg 44%
    05:00 +19°C° 0 mm 3 mps 716 mmHg 44%
    06:00 +20°C° 0 mm 4 mps 717 mmHg 40%
    07:00 +22°C° 0 mm 4 mps 717 mmHg 37%
    08:00 +23°C° 0 mm 4 mps 718 mmHg 34%
    09:00 +26°C° 0 mm 5 mps 718 mmHg 32%
    10:00 +28°C° 0 mm 5 mps 718 mmHg 31%
    11:00 +29°C° 0 mm 6 mps 718 mmHg 29%
    12:00 +29°C° 0 mm 6 mps 717 mmHg 30%
    13:00 +30°C° 0 mm 6 mps 717 mmHg 30%
    14:00 +30°C° 0 mm 6 mps 716 mmHg 31%
    15:00 +29°C° 0 mm 5 mps 716 mmHg 36%
    16:00 +27°C° 0 mm 5 mps 716 mmHg 41%
    17:00 +26°C° 0 mm 4 mps 716 mmHg 46%
    18:00 +25°C° 0 mm 3 mps 716 mmHg 49%
    19:00 +24°C° 0 mm 3 mps 716 mmHg 52%
    20:00 +22°C° 0 mm 3 mps 717 mmHg 56%
    21:00 +22°C° 0 mm 3 mps 716 mmHg 54%
    22:00 +22°C° 0 mm 3 mps 716 mmHg 53%
    23:00 +22°C° 0 mm 3 mps 716 mmHg 52%
    Show more